Location: B?dargowo
(53.3916°N, 14.4413°E)
Time: 09:24:56
(UTC+00:00)

Okean 1-7 Rocket - Pass Details

Date: 05 February 2023
Orbit: 615 x 648 km, 82.5° (Epoch: 19 March)

Event Time Altitude Azimuth Distance (km) Brightness Sun altitude
Rises 18:32:22 0° 192° (SSW) 2,895 7.1 -24.0°
Reaches altitude 10° 18:34:35 10° 193° (SSW) 1,998 6.2 -24.3°
Maximum altitude 18:39:01 81° 280° (W) 647 3.6 -24.9°
Enters shadow 18:39:44 62° 354° (N) 718 3.8 -25.0°
